Regional Weather Roundup
Issued by NWS

Home | Current Version | Previous Version | Graphics & Text | Print | Product List | Glossary On
Versions: 1 2 3 4 5 6 7 8 9 10 11 12 13 14 15 16 17 18 19 20 21 22 23 24 25 26 27 28 29 30 31 32 33 34 35 36 37 38 39 40 41 42 43 44 45 46 47 48 49 50
726
ASUS44 KJAN 311810
RWRMS

MISSISSIPPI HOURLY WEATHER ROUNDUP
NATIONAL WEATHER SERVICE JACKSON MS
100 PM CDT SUN AUG 31 2014

NOTE: "FAIR: INDICATES FEW OR NO CLOUDS BELOW 12,000 FEET WITH NO
SIGNIFICANT WEATHER AND/OR OBSTRUCTIONS TO VISIBILITY.

MSZ001>002-007>008-010>013-018>021-025>028-034>036-311900-
NORTHWEST MISSISSIPPI

CITY           SKY/WX    TMP DP  RH WIND       PRES   REMARKS
CLARKSDALE     PTSUNNY   84  75  74 S8        30.06F HX  92
CLEVELAND      MOCLDY    85  76  74 SW7       30.05F HX  95
GREENWOOD      CLOUDY    81  73  76 SW5       30.07F
6HR MIN TEMP:  74; 6HR MAX TEMP:  81;

GREENVILLE     PTSUNNY   85  74  69 SW8       30.04F HX  92
6HR MIN TEMP:  74; 6HR MAX TEMP:  86;

GRENADA        MOCLDY    81  72  74 SW6       30.08F
OLIVE BRANCH   PTSUNNY   75  75 100 SW12      30.08S
OXFORD         PTSUNNY   82  72  69 SW9G18    30.08F
TUNICA         MOCLDY    82  73  74 S12       30.05F
$$

MSZ003>006-009-014>017-022>024-029>033-037>039-311900-
NORTHEAST MISSISSIPPI

CITY           SKY/WX    TMP DP  RH WIND       PRES   REMARKS
BELMONT        MOCLDY    78  73  86 SW5       30.09F
COLUMBUS AFB   CLOUDY    85  74  69 SW8       30.10S HX  92
6HR MIN TEMP:  73; 6HR MAX TEMP:  85; 6HR PCP:  0.01;

CORINTH        FAIR      84  72  65 SW10G20   30.06F
GOLDN TRIANGLE CLOUDY    84  73  70 SW12      30.11S HX  91
STARKVILLE     CLOUDY    81  75  83 S5        30.10S
TUPELO         CLOUDY    82  71  69 W10       30.08F
6HR MIN TEMP:  73; 6HR MAX TEMP:  83;

$$

MSZ040-058-311900-
CENTRAL MISSISSIPPI

CITY           SKY/WX    TMP DP  RH WIND       PRES   REMARKS
JACKSON INTL   CLOUDY    85  76  74 S9        30.09F HX  94
6HR MIN TEMP:  74; 6HR MAX TEMP:  85; 6HR PCP: TRACE;

JACKSON HAWKNS CLOUDY    84  75  74 S6        30.10F HX  92
6HR MIN TEMP:  74; 6HR MAX TEMP:  84; 6HR PCP: TRACE;

MERIDIAN KEY   PTSUNNY   88  73  61 S10       30.10F HX  95
6HR MIN TEMP:  74; 6HR MAX TEMP:  89;

MERIDIAN NAS   CLOUDY    88  74  63 S5        30.10F HX  96
6HR MIN TEMP:  73; 6HR MAX TEMP:  88;

RAYMOND        FAIR      84  77  79 S6        30.09S HX  94
VICKSBURG      CLOUDY    84  74  71 S9        30.07F HX  91
6HR MIN TEMP:  74; 6HR MAX TEMP:  85;

$$

MSZ059>079-311900-
SOUTH MISSISSIPPI

CITY           SKY/WX    TMP DP  RH WIND       PRES   REMARKS
BROOKHAVEN     FAIR      84  77  79 S6        30.12S HX  94
HATTIESBURG    MOSUNNY   92  72  51 VRB6G17   30.10F HX  99
6HR MIN TEMP:  74; 6HR MAX TEMP:  93;

MCCOMB         CLOUDY    87  74  64 SE8       30.09F HX  95
6HR MIN TEMP:  73; 6HR MAX TEMP:  87;

NATCHEZ        CLOUDY    86  77  74 SE8       30.08F HX  97
6HR MIN TEMP:  73; 6HR MAX TEMP:  86;

PINE BELT      MOSUNNY   90  73  58 S9        30.12F HX  98
$$

MSZ080>082-311900-
COASTAL MISSISSIPPI

CITY           SKY/WX    TMP DP  RH WIND       PRES   REMARKS
BAY ST LOUIS   MOSUNNY  N/A N/A N/A S6        30.09
BILOXI         SUNNY     89  78  69 SE8       30.10F HX 102
6HR MIN TEMP:  83; 6HR MAX TEMP:  90;

PASCAGOULA     MOSUNNY   91  73  55 SE9       30.10F HX  99
6HR MIN TEMP:  73; 6HR MAX TEMP:  91;

GULFPORT       MOSUNNY   88  77  69 S9        30.09F HX 100
6HR MIN TEMP:  81; 6HR MAX TEMP:  89;

$$



USA.gov is the U.S. government's official web portal to all federal, state and local government web resources and services.